Home   Weather   Unnao   Past weeks

Flag for India Past Weather in Unnao, Uttar Pradesh, India — Yesterday and Last 2 Weeks

Now
66 °F

Haze.


Feels Like: 66 °F
Forecast: 49 / 73 °F
Wind: 3 mph from Northwest

Location: Lucknow / Amausi

Current Time: Jan 18, 2017 at 5:40:56 pm

Latest Report: Jan 18, 2017 at 5:00 pm


Visibility: 1 mi

Pressure: 30.09 "Hg

Humidity: 49%

Dew Point: 46 °F

Location of UnnaoLocation

Past Weather in Unnao — Graph

°F

Unnao Temperature Yesterday

Maximum temperature yesterday: 70 °F (at 1:30 pm)
Minimum temperature yesterday: 48 °F (at 6:30 am)
Average temperature yesterday: 58 °F

High & Low Weather Summary for the Past Weeks

 TemperatureHumidityPressure
High77 °F (Jan 16, 2:00 pm)100% (Jan 3, 6:00 pm)30.21 "Hg (Jan 3, 6:00 pm)
Low36 °F (Jan 12, 5:00 am)29% (Jan 10, 1:00 pm)29.80 "Hg (Jan 7, 2:00 pm)
Average57 °F78%29.99 "Hg
* Reported Jan 3 3:30 pm — Jan 18 4:00 pm, Unnao, Weather by CustomWeather, © 2017

Note: Actual official high and low records may vary slightly from our data, if they occured in-between our weather recording intervals... More about our weather records

Advertising

Unnao Weather History for the Previous 24 Hours

Scroll right to see more
 ConditionsComfort  
Time TempWeatherWind HumidityBarometerVisibility
4:00 pm
Wed, Jan 18
68 °FHaze.5 mph49%30.09 "Hg1 mi
3:30 pm68 °FHaze.3 mph49%30.09 "Hg1 mi
3:00 pm68 °FHaze.3 mph49%30.09 "Hg1 mi
2:30 pm66 °FHaze.6 mph52%30.09 "Hg1 mi
2:00 pm66 °FHaze.3 mph52%30.09 "Hg1 mi
1:30 pm63 °FHaze.6 mph59%30.12 "Hg1 mi
1:00 pm61 °FHaze.5 mph68%30.12 "Hg1 mi
12:30 pm57 °FFog.5 mph82%30.15 "Hg1 mi
12:00 pm55 °FFog.6 mph88%30.18 "Hg1 mi
11:30 am52 °FFog.6 mph94%30.18 "Hg1 mi
11:00 am48 °FFog.7 mph100%30.21 "Hg0 mi
10:30 am48 °FFog.5 mph100%30.21 "Hg0 mi
10:00 am48 °FFog.3 mph100%30.21 "Hg0 mi
9:30 am48 °FFog.No wind94%30.18 "Hg0 mi
8:00 am46 °FFog.2 mph100%30.15 "Hg0 mi
7:00 am46 °FFog.6 mph100%30.12 "Hg0 mi
6:30 am48 °FFog.6 mph94%30.09 "Hg0 mi
6:00 am48 °FFog.6 mph94%30.07 "Hg0 mi
5:30 am48 °FFog.6 mph94%30.07 "Hg0 mi
5:00 am46 °FFog.6 mph100%30.07 "Hg0 mi
4:00 am48 °FFog.3 mph94%30.07 "Hg0 mi
3:00 am48 °FFog.6 mph94%30.04 "Hg0 mi
2:00 am48 °FFog.5 mph100%30.07 "Hg1 mi
1:00 am50 °FFog.3 mph100%30.07 "Hg1 mi
12:00 am50 °FFog.3 mph94%30.07 "Hg1 mi
11:00 pm
Tue, Jan 17
50 °FFog.No wind94%30.07 "Hg1 mi
10:00 pm52 °FFog.3 mph94%30.07 "Hg1 mi
9:00 pm54 °FFog.5 mph94%30.07 "Hg1 mi
8:30 pm55 °FFog.3 mph88%30.04 "Hg1 mi
8:00 pm55 °FFog.5 mph88%30.04 "Hg1 mi
7:30 pm55 °FFog.3 mph88%30.04 "Hg1 mi
7:00 pm57 °FFog.5 mph82%30.01 "Hg1 mi
5:30 pm63 °FClear.7 mph73%30.01 "Hg1 mi
5:00 pm64 °FHaze.7 mph68%29.98 "Hg1 mi
Weather by CustomWeather, © 2017

See weather overviewHow to use our weather pages